Regional Weather Roundup
Issued by NWS

Home | Current Version | Previous Version | Graphics & Text | Print | Product List | Glossary On
Versions: 1 2 3 4 5 6 7 8 9 10 11 12 13 14 15 16 17 18 19 20 21 22 23 24 25 26 27 28 29 30 31 32 33 34 35 36 37 38 39 40 41 42 43 44 45 46 47 48 49 50
000
ASUS43 KLOT 302210
RWRIL

ILLINOIS REGIONAL WEATHER ROUNDUP
NATIONAL WEATHER SERVICE CHICAGO/ROMEOVILLE IL
400 PM CST FRI JAN 30 2015

NOTE: "FAIR" INDICATES FEW OR NO CLOUDS BELOW 12,000 FEET WITH NO
SIGNIFICANT WEATHER AND/OR OBSTRUCTIONS TO VISIBILITY.

* THESE STATIONS ARE NOT UNDER NWS QUALITY CONTROL. THEY ALSO MAY NOT
  REPORT WEATHER SUCH AS PRECIPITATION OR FOG.

ILZ001-002-007-009-015-016-024-302300-
NORTHWEST ILLINOIS

CITY           SKY/WX    TMP DP  RH WIND       PRES   REMARKS
MOLINE         SUNNY     30  14  51 S6        30.46S WCI  24
STERLING*      SUNNY     28  14  54 SW3       30.47F
SAVANNA*       SUNNY     29  15  55 S6        30.45F WCI  23
$$

ILZ003-004-008-010-011-017-018-302300-
NORTH CENTRAL ILLINOIS

CITY           SKY/WX    TMP DP  RH WIND       PRES   REMARKS
ROCKFORD       MOSUNNY   28  11  48 W7        30.46F WCI  21
FREEPORT*      SUNNY     25  13  61 SW7       30.46F WCI  17
ROCHELLE*      SUNNY     25  16  67 SW6       30.46F WCI  18
DE KALB*       SUNNY     25  13  60 CALM      30.44F
PERU*          SUNNY     29  16  59 N3        30.47F
$$

ILZ005-006-012>014-019>023-302300-
NORTHEAST ILLINOIS

CITY           SKY/WX    TMP DP  RH WIND       PRES   REMARKS
CHICAGO-OHARE  PTCLDY    28   9  44 W3        30.43F
CHICAGO-MIDWAY PTCLDY    31   8  38 W6        30.45F WCI  25
AURORA         SUNNY     27  11  51 W5        30.45F WCI  22
LANSING*       CLEAR     29  15  55 CALM      30.45F
JOLIET*        CLEAR     29  13  52 NW5       30.46F WCI  23
WAUKEGAN       CLEAR     25  13  60 S6        30.43F WCI  18
DUPAGE AIRPORT CLEAR     27  10  49 W6        30.44F WCI  20
KANKAKEE*      SUNNY     31  18  58 SW5       30.47S WCI  26
WHEELING       CLEAR     28   7  41 S3        30.45F
MORRIS*        SUNNY     29  17  60 W3        30.46F
ROMEOVILLE*    CLEAR     29  12  49 W7        30.45F WCI  22
NORTHERLY ISL    N/A     26  15  63 E3          N/A
$$

LMZ740>746-302300-
SOUTHERN LAKE MICHIGAN

STATION/POSITION SKY/WX   TEMP    WIND        PRES    VSBY  WAVE
                          AIR SEA DIR/SP/G                  HT/PER
                          (F)     (DEG/KT/KT) (MB)    (MI)  (FT/S)
WAUKEGAN HARBOR            29     130/  2/  5   N/A
HARRISON CRIB              24      80/  4/  6   N/A
BURNHAM HARBOR             26      90/  3/  6   N/A
CALUMET HARBOR             25      40/  5/  6   N/A
MICHIGAN CITY              26     360/  3/  5   N/A
$$

ILZ025>027-034>036-040-047-049-050-058-095>099-302300-
WEST-CENTRAL ILLINOIS

CITY           SKY/WX    TMP DP  RH WIND       PRES   REMARKS
QUINCY         SUNNY     34  16  47 SW6       30.45F WCI  29
GALESBURG*     SUNNY     31  20  62 SW7       30.46S WCI  24
MACOMB*        SUNNY     33  21  62 CALM      30.48F
JACKSONVILLE*  SUNNY     37  19  47 CALM      30.47F
PITTSFIELD*    SUNNY     37  21  52 SW5       30.46F WCI  33
$$

ILZ028>032-037-038-041>044-048-051>054-059>061-302300-
CENTRAL ILLINOIS

CITY           SKY/WX    TMP DP  RH WIND       PRES   REMARKS
PONTIAC        MOSUNNY   31  20  63 W7        30.48S WCI  25
BLOOMINGTON    SUNNY     33  20  59 SW8       30.46S WCI  26
DECATUR        SUNNY     36  18  48 NW5       30.47F WCI  32
PEORIA         SUNNY     36  17  46 W5        30.47S WCI  32
LACON*         SUNNY     31  18  58 NW5       30.47S WCI  26
LINCOLN*       SUNNY     36  20  53 SW3       30.48S
SPRINGFIELD    SUNNY     35  19  52 SW5       30.48S WCI  31
TAYLORVILLE    SUNNY     32  21  64 CALM      30.48S
$$

ILZ033-039-045-046-055>057-062-063-302300-
EAST-CENTRAL ILLINOIS

CITY           SKY/WX    TMP DP  RH WIND       PRES   REMARKS
CHAMPAIGN      SUNNY     33  17  51 NW6       30.46S WCI  28
DANVILLE*      SUNNY     31  17  55 NE3       30.43F
RANTOUL*       SUNNY     33  19  56 W3        30.46S
MATTOON        SUNNY     34  18  52 N6        30.46S WCI  29
PARIS*         SUNNY     34  18  53 NW5       30.47S WCI  30
$$

ILZ079-100>102-302300-
SOUTHWEST ILLINOIS

CITY           SKY/WX    TMP DP  RH WIND       PRES   REMARKS
ALTON          SUNNY     37  12  35 VRB6      30.47F WCI  33
BELLEVILLE     SUNNY     40  20  44 NE3       30.47F
CAHOKIA*       SUNNY     40  17  39 CALM      30.47F
SPARTA*        SUNNY     37  21  52 CALM      30.49S
$$

ILZ064>066-069>071-074>076-080>082-084>086-088>090-092>094-302300-
SOUTH-CENTRAL ILLINOIS

CITY           SKY/WX    TMP DP  RH WIND       PRES   REMARKS
CARBONDALE     SUNNY     40  19  43 NW5       30.48F
CAIRO*         SUNNY     46  20  36 NE6       30.47R
EFFINGHAM*     SUNNY     36  20  51 CALM      30.49S
MARION         PTSUNNY   41  21  45 NW7       30.48F
MT. VERNON     SUNNY     39  19  45 NW3       30.48S
CENTRALIA*     SUNNY     37  21  52 N3        30.47F
SALEM*         SUNNY     40  22  49 W5        30.48S
METROPOLIS*    SUNNY     43  20  40 N6        30.45S
$$

ILZ067-068-072-073-078-083-087-091-302300-
SOUTHEAST ILLINOIS

CITY           SKY/WX    TMP DP  RH WIND       PRES   REMARKS
LAWRENCEVILLE  SUNNY     38  19  46 N7        30.47F WCI  33
FLORA*         SUNNY     37  21  52 NE3       30.49S
FAIRFIELD*     SUNNY     38  21  50 N3        30.47F
HARRISBURG*    SUNNY     39  23  52 NE6       30.49S WCI  35
ROBINSON*      SUNNY     36  20  53 N5        30.48S WCI  32
CARMI*         SUNNY     40  24  52 NW5       30.48S
$$

ABBREVIATIONS USED IN REMARKS
   TC - TEMPERATURE IN CELSIUS
  WCI - WIND CHILL INDEX
   HX - HEAT INDEX
  VSB - VISIBILITY
$$




USA.gov is the U.S. government's official web portal to all federal, state and local government web resources and services.